When you browse on this site, cookies collect data to enhance your experience and personalize the content and advertising you see.
Visit our Privacy Policy to learn more. By continuing to use the site, you agree to this use of cookies and data.
  • In Latvia
  • List of Countries
  • For 7 days
  • Water Temperature
  • Satellite Maps
  • Weather Map
  • Weather Widgets
  • user-avatar
    Login

    Hourly Weather Shrewsbury

    Today, 16 December, Sunday

    Time Temperature Precipitation Wind Pressure Humidity
    00:00 +4°C° 0.1 mm 7 mps 743 mmHg 80%
    01:00 +4°C° 0 mm 6 mps 744 mmHg 82%
    02:00 +3°C° 0 mm 5 mps 745 mmHg 85%
    03:00 +4°C° 0 mm 4 mps 746 mmHg 87%
    04:00 +4°C° 0 mm 4 mps 746 mmHg 88%
    05:00 +3°C° 0 mm 3 mps 746 mmHg 90%
    06:00 +3°C° 0 mm 3 mps 747 mmHg 91%
    07:00 +3°C° 0 mm 3 mps 747 mmHg 92%
    08:00 +3°C° 0 mm 3 mps 747 mmHg 92%
    09:00 +3°C° 0 mm 3 mps 747 mmHg 93%
    10:00 +4°C° 0 mm 3 mps 747 mmHg 91%
    11:00 +5°C° 0 mm 3 mps 747 mmHg 88%
    12:00 +7°C° 0 mm 3 mps 747 mmHg 86%
    13:00 +7°C° 0.2 mm 3 mps 747 mmHg 88%
    14:00 +7°C° 0.2 mm 3 mps 747 mmHg 90%
    15:00 +5°C° 0.2 mm 3 mps 747 mmHg 92%
    16:00 +6°C° 0.3 mm 2 mps 748 mmHg 93%
    17:00 +6°C° 0.3 mm 2 mps 748 mmHg 94%
    18:00 +5°C° 0.3 mm 2 mps 748 mmHg 95%
    19:00 +5°C° 0.1 mm 2 mps 749 mmHg 94%
    20:00 +5°C° 0.1 mm 2 mps 749 mmHg 94%
    21:00 +4°C° 0.1 mm 2 mps 750 mmHg 93%
    22:00 +4°C° 0 mm 2 mps 751 mmHg 93%
    23:00 +4°C° 0 mm 2 mps 751 mmHg 92%

    Tomorrow, 17 December, Monday

    Time Temperature Precipitation Wind Pressure Humidity
    00:00 +4°C° 0 mm 2 mps 752 mmHg 91%
    01:00 +4°C° 0 mm 2 mps 752 mmHg 91%
    02:00 +4°C° 0 mm 2 mps 753 mmHg 91%
    03:00 +4°C° 0 mm 2 mps 753 mmHg 91%
    04:00 +3°C° 0 mm 2 mps 754 mmHg 91%
    05:00 +3°C° 0 mm 2 mps 754 mmHg 91%
    06:00 +3°C° 0 mm 2 mps 754 mmHg 91%
    07:00 +2°C° 0 mm 3 mps 755 mmHg 92%
    08:00 +2°C° 0 mm 3 mps 755 mmHg 92%
    09:00 +2°C° 0 mm 3 mps 756 mmHg 92%
    10:00 +4°C° 0 mm 3 mps 756 mmHg 90%
    11:00 +5°C° 0 mm 4 mps 755 mmHg 88%
    12:00 +7°C° 0 mm 5 mps 755 mmHg 85%
    13:00 +7°C° 0 mm 5 mps 755 mmHg 86%
    14:00 +7°C° 0 mm 5 mps 755 mmHg 87%
    15:00 +7°C° 0 mm 5 mps 755 mmHg 88%
    16:00 +7°C° 0 mm 6 mps 754 mmHg 89%
    17:00 +7°C° 0 mm 6 mps 754 mmHg 90%
    18:00 +7°C° 0 mm 6 mps 754 mmHg 91%
    19:00 +8°C° 0.1 mm 7 mps 754 mmHg 91%
    20:00 +8°C° 0.1 mm 7 mps 754 mmHg 90%
    21:00 +8°C° 0.1 mm 7 mps 754 mmHg 90%
    22:00 +9°C° 0 mm 7 mps 753 mmHg 89%
    23:00 +9°C° 0 mm 8 mps 753 mmHg 89%

    Day after tomorrow, 18 December, Tuesday

    Time Temperature Precipitation Wind Pressure Humidity
    00:00 +9°C° 0 mm 8 mps 753 mmHg 88%
    01:00 +9°C° 0.1 mm 8 mps 752 mmHg 87%
    02:00 +9°C° 0.1 mm 8 mps 751 mmHg 87%
    03:00 +8°C° 0.1 mm 9 mps 751 mmHg 86%
    04:00 +8°C° 0.1 mm 9 mps 750 mmHg 86%
    05:00 +8°C° 0.1 mm 9 mps 749 mmHg 85%
    06:00 +8°C° 0.1 mm 10 mps 749 mmHg 84%
    07:00 +8°C° 0.1 mm 10 mps 748 mmHg 83%
    08:00 +8°C° 0.1 mm 10 mps 747 mmHg 82%
    09:00 +7°C° 0.1 mm 11 mps 746 mmHg 81%
    10:00 +7°C° 0.4 mm 11 mps 746 mmHg 81%
    11:00 +7°C° 0.4 mm 11 mps 745 mmHg 81%
    12:00 +7°C° 0.4 mm 11 mps 744 mmHg 81%
    13:00 +7°C° 1 mm 11 mps 743 mmHg 82%
    14:00 +7°C° 1 mm 10 mps 743 mmHg 84%
    15:00 +7°C° 1 mm 10 mps 742 mmHg 86%
    16:00 +6°C° 1.4 mm 8 mps 742 mmHg 86%
    17:00 +6°C° 1.4 mm 7 mps 743 mmHg 86%
    18:00 +6°C° 1.4 mm 5 mps 743 mmHg 86%
    19:00 +6°C° 0.2 mm 4 mps 743 mmHg 87%
    20:00 +7°C° 0.2 mm 3 mps 744 mmHg 87%
    21:00 +5°C° 0.2 mm 3 mps 744 mmHg 88%
    22:00 +5°C° 0 mm 3 mps 745 mmHg 89%
    23:00 +5°C° 0 mm 3 mps 746 mmHg 91%

    19 December, Wednesday

    Time Temperature Precipitation Wind Pressure Humidity
    00:00 +4°C° 0 mm 3 mps 746 mmHg 92%
    01:00 +4°C° 0.1 mm 3 mps 747 mmHg 92%
    02:00 +4°C° 0.1 mm 3 mps 747 mmHg 92%
    03:00 +4°C° 0.1 mm 3 mps 747 mmHg 92%
    04:00 +4°C° 0 mm 3 mps 748 mmHg 92%
    05:00 +4°C° 0 mm 3 mps 748 mmHg 92%
    06:00 +3°C° 0 mm 3 mps 748 mmHg 92%
    07:00 +3°C° 0 mm 3 mps 749 mmHg 92%
    08:00 +3°C° 0 mm 3 mps 749 mmHg 91%
    09:00 +3°C° 0 mm 3 mps 749 mmHg 91%
    10:00 +4°C° 0 mm 3 mps 750 mmHg 87%
    11:00 +5°C° 0 mm 4 mps 750 mmHg 83%
    12:00 +6°C° 0 mm 4 mps 750 mmHg 79%
    13:00 +6°C° 0 mm 4 mps 750 mmHg 81%
    14:00 +6°C° 0 mm 4 mps 750 mmHg 82%
    15:00 +5°C° 0 mm 3 mps 750 mmHg 83%
    16:00 +5°C° 0 mm 3 mps 750 mmHg 85%
    17:00 +5°C° 0 mm 4 mps 750 mmHg 86%
    18:00 +4°C° 0 mm 4 mps 750 mmHg 87%
    19:00 +4°C° 0 mm 4 mps 750 mmHg 88%
    20:00 +4°C° 0 mm 4 mps 750 mmHg 89%
    21:00 +4°C° 0 mm 4 mps 750 mmHg 89%
    22:00 +4°C° 0 mm 4 mps 750 mmHg 88%
    23:00 +3°C° 0 mm 5 mps 750 mmHg 88%

    20 December, Thursday

    Time Temperature Precipitation Wind Pressure Humidity
    00:00 +3°C° 0 mm 5 mps 750 mmHg 87%
    01:00 +5°C° 0.4 mm 5 mps 750 mmHg 87%
    02:00 +5°C° 0.4 mm 5 mps 750 mmHg 88%
    03:00 +5°C° 0.4 mm 5 mps 751 mmHg 88%
    04:00 +5°C° 0.3 mm 5 mps 751 mmHg 88%
    05:00 +5°C° 0.3 mm 5 mps 751 mmHg 88%
    06:00 +5°C° 0.3 mm 5 mps 751 mmHg 88%
    07:00 +5°C° 0.3 mm 5 mps 751 mmHg 88%
    08:00 +5°C° 0.3 mm 5 mps 752 mmHg 87%
    09:00 +5°C° 0.3 mm 5 mps 752 mmHg 87%
    10:00 +6°C° 0.1 mm 5 mps 752 mmHg 85%
    11:00 +6°C° 0.1 mm 5 mps 752 mmHg 82%
    12:00 +7°C° 0.1 mm 5 mps 752 mmHg 80%
    13:00 +7°C° 0 mm 5 mps 752 mmHg 81%
    14:00 +6°C° 0 mm 4 mps 753 mmHg 83%
    15:00 +6°C° 0 mm 4 mps 753 mmHg 84%
    16:00 +5°C° 0 mm 3 mps 753 mmHg 86%
    17:00 +5°C° 0 mm 3 mps 753 mmHg 89%
    18:00 +4°C° 0 mm 3 mps 754 mmHg 91%
    19:00 +4°C° 0 mm 3 mps 754 mmHg 92%
    20:00 +3°C° 0 mm 3 mps 754 mmHg 92%
    21:00 +3°C° 0 mm 3 mps 754 mmHg 93%
    22:00 +3°C° 0 mm 3 mps 753 mmHg 93%
    23:00 +3°C° 0 mm 3 mps 753 mmHg 93%

    21 December, Friday

    Time Temperature Precipitation Wind Pressure Humidity
    00:00 +3°C° 0 mm 3 mps 752 mmHg 93%
    01:00 +3°C° 0.1 mm 3 mps 752 mmHg 93%
    02:00 +3°C° 0.1 mm 3 mps 751 mmHg 93%
    03:00 +4°C° 0.1 mm 3 mps 750 mmHg 93%
    04:00 +4°C° 0.4 mm 4 mps 749 mmHg 94%
    05:00 +5°C° 0.4 mm 4 mps 747 mmHg 95%
    06:00 +5°C° 0.4 mm 4 mps 746 mmHg 95%
    07:00 +6°C° 0.7 mm 5 mps 745 mmHg 96%
    08:00 +7°C° 0.7 mm 5 mps 744 mmHg 96%
    09:00 +7°C° 0.7 mm 5 mps 743 mmHg 96%
    10:00 +8°C° 0.3 mm 6 mps 743 mmHg 94%
    11:00 +9°C° 0.3 mm 6 mps 743 mmHg 91%
    12:00 +9°C° 0.3 mm 7 mps 744 mmHg 88%
    13:00 +9°C° 0 mm 7 mps 744 mmHg 86%
    14:00 +8°C° 0 mm 7 mps 745 mmHg 83%
    15:00 +8°C° 0 mm 7 mps 746 mmHg 81%
    16:00 +7°C° 0 mm 6 mps 746 mmHg 84%
    17:00 +7°C° 0 mm 6 mps 747 mmHg 86%
    18:00 +7°C° 0 mm 5 mps 747 mmHg 89%
    19:00 +7°C° 0.4 mm 6 mps 747 mmHg 89%
    20:00 +8°C° 0.4 mm 6 mps 747 mmHg 89%
    21:00 +8°C° 0.4 mm 7 mps 747 mmHg 89%
    22:00 +8°C° 0.1 mm 6 mps 747 mmHg 90%
    23:00 +7°C° 0.1 mm 5 mps 747 mmHg 90%
    Show more